Change the Weather History Date:

Sunday, November 11, 2012

  Actual Average Record
Temperature  
Mean Temperature 56 °F 55 °F  
Max Temperature 71 °F 67 °F 84 °F (1975)
Min Temperature 40 °F 43 °F 24 °F (1950)
Degree Days  
Heating Degree Days 9    
Month to date heating degree days 139  
Since 1 July heating degree days 292  
Growing Degree Days 6 (Base 50)    
Moisture  
Dew Point 45 °F    
Average Humidity 68    
Maximum Humidity 89    
Minimum Humidity 47    
Precipitation  
Precipitation 0.00 in 0.14 in 1.79 in (1947)
Month to date precipitation 0.52 1.52  
Year to date precipitation 38.79 42.49  
Sea Level Pressure  
Sea Level Pressure 30.30 in    
Wind  
Wind Speed 6 mph (East)    
Max Wind Speed 16 mph    
Max Gust Speed 23 mph    
Visibility 9 miles    
Events      
T = Trace of Precipitation, MM = Missing Value Source: NWS Daily Summary

Daily Weather History Graph

Daily Weather History Graph

Search for Another Location

Airport or City:

Trip Planner

Search our weather history database for the weather conditions in past years. The results will help you decide how hot, cold, wet, or windy it might be!

Date:

Astronomy

Nov. 11, 2012 Rise Set
Actual Time 6:11 AM CST 4:42 PM CST
Civil Twilight 5:45 AM CST 5:09 PM CST
Nautical Twilight 5:15 AM CST 5:38 PM CST
Astronomical Twilight 4:46 AM CST 6:08 PM CST
Moon 3:31 AM CST (11/11) 3:01 PM CST (11/11)
Length of Visible Light 11h 23m
Length of Day
10h 30m
Waning Crescent, 7% of the Moon is Illuminated
Nov 11
Waning Crescent
Nov 13
New
Nov 20
First Quarter
Nov 28
Full
Dec 6
Last Quarter

Hourly Weather History & Observations

Time (CST) Temp. Windchill Dew Point Humidity Pressure Visibility Wind Dir Wind Speed Gust Speed Precip Events Conditions
12:53 AM 42.1 °F 39.2 °F 37.9 °F 85% 30.31 in 7.0 mi NE 4.6 mph - N/A   Clear
1:53 AM 41.0 °F 39.0 °F 37.9 °F 89% 30.30 in 7.0 mi NE 3.5 mph - N/A   Clear
2:53 AM 42.1 °F 40.2 °F 37.9 °F 85% 30.29 in 8.0 mi NE 3.5 mph - N/A   Clear
3:53 AM 42.1 °F - 37.0 °F 82% 30.30 in 9.0 mi Calm Calm - N/A   Clear
4:53 AM 45.0 °F 42.6 °F 37.0 °F 74% 30.33 in 9.0 mi ENE 4.6 mph - N/A   Clear
5:53 AM 44.1 °F 40.1 °F 36.0 °F 73% 30.35 in 8.0 mi NE 6.9 mph - N/A   Clear
6:53 AM 45.0 °F 41.2 °F 37.0 °F 74% 30.38 in 7.0 mi NE 6.9 mph - N/A   Clear
7:53 AM 52.0 °F - 41.0 °F 66% 30.39 in 8.0 mi NNE 6.9 mph - N/A   Clear
8:53 AM 59.0 °F - 46.9 °F 64% 30.38 in 9.0 mi East 9.2 mph - N/A   Clear
10:53 AM 68.0 °F - 48.9 °F 50% 30.35 in 10.0 mi SSE 9.2 mph - N/A   Clear
11:53 AM 70.0 °F - 50.0 °F 49% 30.32 in 10.0 mi SE 6.9 mph - N/A   Mostly Cloudy
12:53 PM 69.1 °F - 48.0 °F 47% 30.30 in 10.0 mi SE 12.7 mph - N/A   Mostly Cloudy
2:53 PM 70.0 °F - 48.9 °F 47% 30.27 in 10.0 mi SE 9.2 mph - N/A   Partly Cloudy
3:53 PM 69.1 °F - 48.9 °F 49% 30.26 in 10.0 mi SE 5.8 mph - N/A   Scattered Clouds
4:53 PM 66.0 °F - 48.9 °F 54% 30.26 in 10.0 mi ESE 3.5 mph - N/A   Clear
5:53 PM 66.0 °F - 48.9 °F 54% 30.27 in 10.0 mi Variable 3.5 mph - N/A   Clear
6:53 PM 62.1 °F - 48.9 °F 62% 30.27 in 10.0 mi ESE 4.6 mph - N/A   Clear
7:53 PM 64.0 °F - 50.0 °F 60% 30.26 in 10.0 mi ESE 5.8 mph - N/A   Clear
9:53 PM 64.0 °F - 50.0 °F 60% 30.26 in 10.0 mi ESE 12.7 mph 18.4 mph N/A   Clear
10:53 PM 64.9 °F - 51.1 °F 61% 30.25 in 10.0 mi ESE 6.9 mph 16.1 mph N/A   Mostly Cloudy
11:53 PM 64.9 °F - 53.1 °F 65% 30.22 in 10.0 mi SE 8.1 mph 18.4 mph N/A   Partly Cloudy